This is the latest recevied weather packets stored in our database for station/object KI6SYE. If no packets are shown the sender has not sent any weather packets the latest 10 day(s).
| Time | Temp. | Humidity | Pressure | Rain* | Wind** | Luminosity | Snow |
|---|---|---|---|---|---|---|---|
| 1788538177 | 22.78° C | 74% | 1013.4 hPa | 0 mm | - | 375 W/m² | - |
| 1788537872 | 22.78° C | 74% | 1013.3 hPa | 0 mm | - | 164 W/m² | - |
| 1788537567 | 22.78° C | 75% | 1013.3 hPa | 0 mm | - | 337 W/m² | - |
| 1788537262 | 22.78° C | 76% | 1013.3 hPa | 0 mm | - | 311 W/m² | - |
| 1788536960 | 22.78° C | 77% | 1013.2 hPa | 0 mm | - | 290 W/m² | - |
| 1788536655 | 22.22° C | 79% | 1013 hPa | 0 mm | - | 275 W/m² | - |
| 1788536350 | 22.22° C | 77% | 1013 hPa | 0 mm | - | 268 W/m² | - |
| 1788536046 | 22.22° C | 80% | 1013.2 hPa | 0 mm | - | 249 W/m² | - |
| 1788535742 | 21.67° C | 80% | 1013.3 hPa | 0 mm | - | 77 W/m² | - |
| 1788535442 | 21.67° C | 81% | 1013.3 hPa | 0 mm | - | 130 W/m² | - |
| 1788535135 | 21.11° C | 81% | 1013.2 hPa | 0 mm | - | 79 W/m² | - |
| 1788534830 | 21.11° C | 82% | 1013.5 hPa | 0 mm | - | 173 W/m² | - |
| 1788534526 | 21.11° C | 82% | 1013.3 hPa | 0 mm | - | 125 W/m² | - |
| 1788534221 | 21.11° C | 82% | 1013.2 hPa | 0 mm | - | 84 W/m² | - |
| 1788533919 | 20.56° C | 83% | 1013.1 hPa | 0 mm | - | 138 W/m² | - |
| 1788533616 | 20° C | 84% | 1013 hPa | 0 mm | - | 118 W/m² | - |
| 1788533310 | 20° C | 84% | 1012.8 hPa | 0 mm | - | 103 W/m² | - |
| 1788533006 | 20° C | 84% | 1013 hPa | 0 mm | - | 93 W/m² | - |
| 1788532701 | 20° C | 84% | 1013 hPa | 0 mm | - | 58 W/m² | - |
| 1788532398 | 20° C | 85% | 1012.9 hPa | 0 mm | - | 70 W/m² | - |
| 1788532095 | 19.44° C | 86% | 1012.8 hPa | 0 mm | - | 61 W/m² | - |
| 1788531790 | 19.44° C | 87% | 1012.8 hPa | 0 mm | - | 35 W/m² | - |
| 1788531490 | 18.89° C | 88% | 1012.7 hPa | 0 mm | - | 47 W/m² | - |
| 1788531185 | 18.33° C | 90% | 1012.7 hPa | 0 mm | - | 40 W/m² | - |
| 1788530881 | 18.33° C | 90% | 1012.6 hPa | 0 mm | - | 33 W/m² | - |
* Rain latest hour (hover to see other rain measurements)
** Current wind speed in m/s (hover to see current wind gust speed)